Year,Month,Day,Hour,Minute,Value (Times are PST for temperature in C)
2010,07,23,00,00,14.60
2010,07,23,00,01,14.50
2010,07,23,00,02,14.50
2010,07,23,00,03,14.40
2010,07,23,00,04,14.40
2010,07,23,00,05,14.30
2010,07,23,00,06,14.30
2010,07,23,00,07,14.30
2010,07,23,00,08,14.20
2010,07,23,00,09,14.20
2010,07,23,00,10,14.20
2010,07,23,00,11,14.20
2010,07,23,00,12,14.10
2010,07,23,00,13,14.10
2010,07,23,00,14,14.00
2010,07,23,00,15,14.00
2010,07,23,00,16,14.00
2010,07,23,00,17,13.90
2010,07,23,00,18,13.90
2010,07,23,00,19,13.80
2010,07,23,00,20,13.80
2010,07,23,00,21,13.80
2010,07,23,00,22,13.80
2010,07,23,00,23,13.70
2010,07,23,00,24,13.70
2010,07,23,00,25,13.70
2010,07,23,00,26,13.70
2010,07,23,00,27,13.70
2010,07,23,00,28,13.70
2010,07,23,00,29,13.60
2010,07,23,00,30,13.60
2010,07,23,00,31,13.60
2010,07,23,00,32,13.60
2010,07,23,00,33,13.60
2010,07,23,00,34,13.60
2010,07,23,00,35,13.50
2010,07,23,00,36,13.50
2010,07,23,00,37,13.50
2010,07,23,00,38,13.50
2010,07,23,00,39,13.50
2010,07,23,00,40,13.40
2010,07,23,00,41,13.40
2010,07,23,00,42,13.40
2010,07,23,00,43,13.40
2010,07,23,00,44,13.40
2010,07,23,00,45,13.40
2010,07,23,00,46,13.40
2010,07,23,00,47,13.30
2010,07,23,00,48,13.30
2010,07,23,00,49,13.30
2010,07,23,00,50,13.30
2010,07,23,00,51,13.30
2010,07,23,00,52,13.30
2010,07,23,00,53,13.20
2010,07,23,00,54,13.20
2010,07,23,00,55,13.20
2010,07,23,00,56,13.20
2010,07,23,00,57,13.20
2010,07,23,00,58,13.20
2010,07,23,00,59,13.10
2010,07,23,01,00,13.10
2010,07,23,01,01,13.10
2010,07,23,01,02,13.10
2010,07,23,01,06,13.10
2010,07,23,01,07,13.10
2010,07,23,01,08,13.10
2010,07,23,01,09,13.00
2010,07,23,01,10,13.00
2010,07,23,01,11,13.00
2010,07,23,01,12,13.00
2010,07,23,01,13,13.00
2010,07,23,01,14,12.90
2010,07,23,01,15,12.90
2010,07,23,01,16,12.90
2010,07,23,01,17,12.90
2010,07,23,01,18,12.90
2010,07,23,01,19,12.90
2010,07,23,01,20,12.90
2010,07,23,01,21,12.90
2010,07,23,01,22,12.90
2010,07,23,01,23,12.90
2010,07,23,01,24,12.90
2010,07,23,01,25,12.90
2010,07,23,01,26,12.90
2010,07,23,01,27,12.90
2010,07,23,01,28,12.90
2010,07,23,01,29,12.90
2010,07,23,01,30,12.90
2010,07,23,01,31,12.80
2010,07,23,01,32,12.80
2010,07,23,01,33,12.80
2010,07,23,01,34,12.80
2010,07,23,01,35,12.80
2010,07,23,01,36,12.80
2010,07,23,01,37,12.80
2010,07,23,01,38,12.80
2010,07,23,01,39,12.70
2010,07,23,01,40,12.70
2010,07,23,01,41,12.70
2010,07,23,01,42,12.70
2010,07,23,01,43,12.70
2010,07,23,01,44,12.60
2010,07,23,01,45,12.60
2010,07,23,01,46,12.60
2010,07,23,01,47,12.60
2010,07,23,01,48,12.60
2010,07,23,01,49,12.50
2010,07,23,01,50,12.50
2010,07,23,01,51,12.50
2010,07,23,01,52,12.50
2010,07,23,01,53,12.50
2010,07,23,01,54,12.50
2010,07,23,01,55,12.40
2010,07,23,01,56,12.40
2010,07,23,01,57,12.40
2010,07,23,01,58,12.40
2010,07,23,01,59,12.40
2010,07,23,02,00,12.40
2010,07,23,02,01,12.40
2010,07,23,02,02,12.40
2010,07,23,02,03,12.40
2010,07,23,02,04,12.30
2010,07,23,02,05,12.30
2010,07,23,02,06,12.30
2010,07,23,02,07,12.30
2010,07,23,02,08,12.30
2010,07,23,02,09,12.30
2010,07,23,02,10,12.30
2010,07,23,02,11,12.20
2010,07,23,02,12,12.20
2010,07,23,02,13,12.20
2010,07,23,02,14,12.20
2010,07,23,02,15,12.20
2010,07,23,02,16,12.20
2010,07,23,02,17,12.20
2010,07,23,02,18,12.20
2010,07,23,02,19,12.20
2010,07,23,02,20,12.20
2010,07,23,02,21,12.20
2010,07,23,02,22,12.20
2010,07,23,02,23,12.20
2010,07,23,02,24,12.20
2010,07,23,02,25,12.20
2010,07,23,02,26,12.20
2010,07,23,02,27,12.20
2010,07,23,02,28,12.10
2010,07,23,02,29,12.10
2010,07,23,02,30,12.10
2010,07,23,02,31,12.10
2010,07,23,02,32,12.10
2010,07,23,02,33,12.10
2010,07,23,02,34,12.10
2010,07,23,02,35,12.10
2010,07,23,02,36,12.10
2010,07,23,02,37,12.10
2010,07,23,02,38,12.00
2010,07,23,03,06,11.80
2010,07,23,03,07,11.80
2010,07,23,03,08,11.80
2010,07,23,03,09,11.80
2010,07,23,03,10,11.80
2010,07,23,03,11,11.80
2010,07,23,03,12,11.80
2010,07,23,03,13,11.80
2010,07,23,03,14,11.80
2010,07,23,03,15,11.70
2010,07,23,03,16,11.70
2010,07,23,03,17,11.70
2010,07,23,03,18,11.70
2010,07,23,03,19,11.70
2010,07,23,03,20,11.70
2010,07,23,03,21,11.70
2010,07,23,03,22,11.70
2010,07,23,03,23,11.70
2010,07,23,03,24,11.70
2010,07,23,03,25,11.70
2010,07,23,03,26,11.60
2010,07,23,03,27,11.60
2010,07,23,03,28,11.60
2010,07,23,03,29,11.60
2010,07,23,03,30,11.60
2010,07,23,03,31,11.60
2010,07,23,03,32,11.60
2010,07,23,03,33,11.60
2010,07,23,03,34,11.60
2010,07,23,03,35,11.60
2010,07,23,03,36,11.60
2010,07,23,03,37,11.60
2010,07,23,03,38,11.60
2010,07,23,03,39,11.60
2010,07,23,03,40,11.60
2010,07,23,03,41,11.60
2010,07,23,03,42,11.60
2010,07,23,03,43,11.60
2010,07,23,03,44,11.60
2010,07,23,03,45,11.60
2010,07,23,03,46,11.60
2010,07,23,03,47,11.60
2010,07,23,03,48,11.50
2010,07,23,03,49,11.50
2010,07,23,03,50,11.50
2010,07,23,03,51,11.50
2010,07,23,03,52,11.50
2010,07,23,03,53,11.50
2010,07,23,03,54,11.50
2010,07,23,03,55,11.50
2010,07,23,03,56,11.50
2010,07,23,03,57,11.50
2010,07,23,03,58,11.50
2010,07,23,03,59,11.50
2010,07,23,04,00,11.50
2010,07,23,04,01,11.50
2010,07,23,04,02,11.50
2010,07,23,04,03,11.50
2010,07,23,04,04,11.50
2010,07,23,04,05,11.50
2010,07,23,04,06,11.50
2010,07,23,04,07,11.50
2010,07,23,04,08,11.50
2010,07,23,04,09,11.50
2010,07,23,04,10,11.50
2010,07,23,04,11,11.50
2010,07,23,04,12,11.50
2010,07,23,04,13,11.50
2010,07,23,04,14,11.50
2010,07,23,04,15,11.50
2010,07,23,04,16,11.50
2010,07,23,04,17,11.50
2010,07,23,04,18,11.50
2010,07,23,04,19,11.40
2010,07,23,04,20,11.40
2010,07,23,04,21,11.40
2010,07,23,04,22,11.40
2010,07,23,04,23,11.40
2010,07,23,04,24,11.40
2010,07,23,04,25,11.40
2010,07,23,04,26,11.40
2010,07,23,04,27,11.40
2010,07,23,04,28,11.40
2010,07,23,04,29,11.40
2010,07,23,04,30,11.40
2010,07,23,04,31,11.40
2010,07,23,04,32,11.40
2010,07,23,04,33,11.40
2010,07,23,04,34,11.40
2010,07,23,04,35,11.40
2010,07,23,04,36,11.30
2010,07,23,04,37,11.30
2010,07,23,04,38,11.30
2010,07,23,04,39,11.30
2010,07,23,04,40,11.30
2010,07,23,04,41,11.30
2010,07,23,04,42,11.30
2010,07,23,04,43,11.30
2010,07,23,04,44,11.30
2010,07,23,04,45,11.30
2010,07,23,04,46,11.30
2010,07,23,04,47,11.30
2010,07,23,04,48,11.30
2010,07,23,04,49,11.30
2010,07,23,04,50,11.30
2010,07,23,04,51,11.30
2010,07,23,04,52,11.30
2010,07,23,04,53,11.30
2010,07,23,04,54,11.30
2010,07,23,04,55,11.30
2010,07,23,04,56,11.30
2010,07,23,04,57,11.30
2010,07,23,04,58,11.30
2010,07,23,04,59,11.30
2010,07,23,05,00,11.30
2010,07,23,05,01,11.30
2010,07,23,05,02,11.30
2010,07,23,05,03,11.30
2010,07,23,05,04,11.30
2010,07,23,05,05,11.30
2010,07,23,05,06,11.30
2010,07,23,05,07,11.30
2010,07,23,05,08,11.30
2010,07,23,05,09,11.30
2010,07,23,05,10,11.30
2010,07,23,05,11,11.30
2010,07,23,05,12,11.30
2010,07,23,05,13,11.30
2010,07,23,05,14,11.30
2010,07,23,05,15,11.30
2010,07,23,05,16,11.30
2010,07,23,05,17,11.30
2010,07,23,05,18,11.20
2010,07,23,05,19,11.20
2010,07,23,05,20,11.20
2010,07,23,05,21,11.20
2010,07,23,05,22,11.20
2010,07,23,05,23,11.20
2010,07,23,05,24,11.20
2010,07,23,05,25,11.20
2010,07,23,05,26,11.20
2010,07,23,05,27,11.20
2010,07,23,05,28,11.20
2010,07,23,05,29,11.20
2010,07,23,05,30,11.10
2010,07,23,05,31,11.10
2010,07,23,05,32,11.10
2010,07,23,05,33,11.10
2010,07,23,05,34,11.10
2010,07,23,05,35,11.10
2010,07,23,05,36,11.10
2010,07,23,05,37,11.10
2010,07,23,05,38,11.10
2010,07,23,05,39,11.10
2010,07,23,05,40,11.10
2010,07,23,05,41,11.10
2010,07,23,05,42,11.10
2010,07,23,05,43,11.10
2010,07,23,05,44,11.10
2010,07,23,05,45,11.10
2010,07,23,05,46,11.10
2010,07,23,05,47,11.10
2010,07,23,05,48,11.10
2010,07,23,05,49,11.10
2010,07,23,05,50,11.10
2010,07,23,05,51,11.10
2010,07,23,05,52,11.10
2010,07,23,05,53,11.10
2010,07,23,05,54,11.10
2010,07,23,05,55,11.10
2010,07,23,05,56,11.10
2010,07,23,05,57,11.10
2010,07,23,05,58,11.10
2010,07,23,05,59,11.10
2010,07,23,06,00,11.10
2010,07,23,06,01,11.10
2010,07,23,06,02,11.10
2010,07,23,06,03,11.00
2010,07,23,06,04,11.00
2010,07,23,06,05,11.00
2010,07,23,06,06,11.00
2010,07,23,06,07,11.00
2010,07,23,06,08,11.00
2010,07,23,06,09,11.00
2010,07,23,06,10,11.10
2010,07,23,06,11,11.10
2010,07,23,06,12,11.10
2010,07,23,06,13,11.10
2010,07,23,06,14,11.10
2010,07,23,06,15,11.10
2010,07,23,06,16,11.10
2010,07,23,06,17,11.10
2010,07,23,06,18,11.10
2010,07,23,06,19,11.10
2010,07,23,06,20,11.10
2010,07,23,06,21,11.10
2010,07,23,06,22,11.10
2010,07,23,06,23,11.10
2010,07,23,06,24,11.10
2010,07,23,06,25,11.10
2010,07,23,06,26,11.10
2010,07,23,06,27,11.10
2010,07,23,06,28,11.10
2010,07,23,06,29,11.10
2010,07,23,06,30,11.10
2010,07,23,06,31,11.10
2010,07,23,06,32,11.10
2010,07,23,06,33,11.10
2010,07,23,06,34,11.10
2010,07,23,06,35,11.10
2010,07,23,06,36,11.10
2010,07,23,06,37,11.10
2010,07,23,06,38,11.10
2010,07,23,06,39,11.10
2010,07,23,06,40,11.10
2010,07,23,06,41,11.10
2010,07,23,06,42,11.10
2010,07,23,06,43,11.10
2010,07,23,06,44,11.10
2010,07,23,06,45,11.10
2010,07,23,06,46,11.10
2010,07,23,06,47,11.10
2010,07,23,06,48,11.10
2010,07,23,06,49,11.10
2010,07,23,06,50,11.10
2010,07,23,06,51,11.10
2010,07,23,06,52,11.10
2010,07,23,06,53,11.10
2010,07,23,06,54,11.10
2010,07,23,06,55,11.10
2010,07,23,06,56,11.10
2010,07,23,06,57,11.10
2010,07,23,06,58,11.10
2010,07,23,06,59,11.10
2010,07,23,07,00,11.10
2010,07,23,07,01,11.10
2010,07,23,07,02,11.10
2010,07,23,07,03,11.10
2010,07,23,07,04,11.10
2010,07,23,07,05,11.10
2010,07,23,07,06,11.20
2010,07,23,07,07,11.20
2010,07,23,07,08,11.20
2010,07,23,07,09,11.20
2010,07,23,07,10,11.20
2010,07,23,07,11,11.20
2010,07,23,07,12,11.20
2010,07,23,07,13,11.20
2010,07,23,07,14,11.20
2010,07,23,07,15,11.30
2010,07,23,07,16,11.30
2010,07,23,07,17,11.30
2010,07,23,07,18,11.30
2010,07,23,07,19,11.30
2010,07,23,07,20,11.30
2010,07,23,07,21,11.30
2010,07,23,07,22,11.30
2010,07,23,07,23,11.30
2010,07,23,07,24,11.30
2010,07,23,07,25,11.30
2010,07,23,07,26,11.30
2010,07,23,07,27,11.30
2010,07,23,07,28,11.30
2010,07,23,07,29,11.40
2010,07,23,07,30,11.40
2010,07,23,07,31,11.40
2010,07,23,07,32,11.40
2010,07,23,07,33,11.40
2010,07,23,07,34,11.40
2010,07,23,07,35,11.40
2010,07,23,07,36,11.50
2010,07,23,07,37,11.50
2010,07,23,07,38,11.50
2010,07,23,07,39,11.50
2010,07,23,07,40,11.50
2010,07,23,07,41,11.60
2010,07,23,07,42,11.60
2010,07,23,07,43,11.60
2010,07,23,07,44,11.60
2010,07,23,07,45,11.60
2010,07,23,07,46,11.60
2010,07,23,07,47,11.70
2010,07,23,07,48,11.70
2010,07,23,07,49,11.70
2010,07,23,07,50,11.70
2010,07,23,07,51,11.80
2010,07,23,07,52,11.80
2010,07,23,07,53,11.80
2010,07,23,07,54,11.80
2010,07,23,07,55,11.80
2010,07,23,07,56,11.80
2010,07,23,07,57,11.90
2010,07,23,07,58,11.90
2010,07,23,07,59,11.90
2010,07,23,08,00,11.90
2010,07,23,08,01,11.90
2010,07,23,08,02,11.90
2010,07,23,08,03,11.90
2010,07,23,08,04,11.90
2010,07,23,08,05,12.00
2010,07,23,08,06,12.00
2010,07,23,08,07,12.00
2010,07,23,08,08,12.10
2010,07,23,08,09,12.10
2010,07,23,08,10,12.10
2010,07,23,08,11,12.20
2010,07,23,08,12,12.20
2010,07,23,08,13,12.20
2010,07,23,08,14,12.30
2010,07,23,08,15,12.30
2010,07,23,08,16,12.40
2010,07,23,08,17,12.40
2010,07,23,08,18,12.50
2010,07,23,08,19,12.60
2010,07,23,08,20,12.60
2010,07,23,08,21,12.70
2010,07,23,08,22,12.70
2010,07,23,08,23,12.80
2010,07,23,08,24,12.90
2010,07,23,08,25,12.90
2010,07,23,08,26,13.00
2010,07,23,08,27,13.00
2010,07,23,08,28,13.10
2010,07,23,08,29,13.10
2010,07,23,08,30,13.20
2010,07,23,08,31,13.20
2010,07,23,08,32,13.30
2010,07,23,08,33,13.30
2010,07,23,08,34,13.40
2010,07,23,08,35,13.40
2010,07,23,08,36,13.50
2010,07,23,08,37,13.50
2010,07,23,08,38,13.60
2010,07,23,08,39,13.70
2010,07,23,08,40,13.70
2010,07,23,08,41,13.80
2010,07,23,08,42,13.80
2010,07,23,08,43,13.90
2010,07,23,08,44,13.90
2010,07,23,08,45,14.00
2010,07,23,08,46,14.00
2010,07,23,08,47,14.10
2010,07,23,08,48,14.10
2010,07,23,08,49,14.20
2010,07,23,08,50,14.20
2010,07,23,08,51,14.30
2010,07,23,08,52,14.30
2010,07,23,08,53,14.30
2010,07,23,08,54,14.40
2010,07,23,08,55,14.40
2010,07,23,08,56,14.40
2010,07,23,08,57,14.40
2010,07,23,08,58,14.50
2010,07,23,08,59,14.50
2010,07,23,09,00,14.60
2010,07,23,09,01,14.60
2010,07,23,09,02,14.60
2010,07,23,09,03,14.60
2010,07,23,09,04,14.70
2010,07,23,09,05,14.70
2010,07,23,09,06,14.70
2010,07,23,09,07,14.80
2010,07,23,09,08,14.80
2010,07,23,09,09,14.90
2010,07,23,09,10,15.00
2010,07,23,09,11,15.00
2010,07,23,09,12,15.00
2010,07,23,09,13,15.00
2010,07,23,09,14,15.00
2010,07,23,09,15,15.00
2010,07,23,09,16,15.00
2010,07,23,09,17,15.00
2010,07,23,09,18,15.00
2010,07,23,09,19,15.10
2010,07,23,09,20,15.20
2010,07,23,09,21,15.20
2010,07,23,09,22,15.20
2010,07,23,09,23,15.30
2010,07,23,09,24,15.30
2010,07,23,09,25,15.30
2010,07,23,09,26,15.30
2010,07,23,09,27,15.40
2010,07,23,09,28,15.40
2010,07,23,09,29,15.40
2010,07,23,09,30,15.50
2010,07,23,09,31,15.50
2010,07,23,09,32,15.60
2010,07,23,09,33,15.60
2010,07,23,09,34,15.70
2010,07,23,09,35,15.70
2010,07,23,09,36,15.70
2010,07,23,09,37,15.80
2010,07,23,09,38,15.80
2010,07,23,09,39,15.80
2010,07,23,09,40,15.90
2010,07,23,09,41,15.90
2010,07,23,09,42,16.00
2010,07,23,09,43,16.00
2010,07,23,09,44,16.10
2010,07,23,09,45,16.10
2010,07,23,09,46,16.10
2010,07,23,09,47,16.10
2010,07,23,09,48,16.20
2010,07,23,09,49,16.20
2010,07,23,09,50,16.20
2010,07,23,09,51,16.20
2010,07,23,09,52,16.20
2010,07,23,09,53,16.30
2010,07,23,09,54,16.30
2010,07,23,09,55,16.30
2010,07,23,09,56,16.40
2010,07,23,09,57,16.40
2010,07,23,09,58,16.40
2010,07,23,09,59,16.40
2010,07,23,10,00,16.50
2010,07,23,10,01,16.50
2010,07,23,10,02,16.60
2010,07,23,10,03,16.60
2010,07,23,10,04,16.60
2010,07,23,10,05,16.60
2010,07,23,10,06,16.60
2010,07,23,10,07,16.70
2010,07,23,10,08,16.70
2010,07,23,10,09,16.70
2010,07,23,10,10,16.70
2010,07,23,10,11,16.70
2010,07,23,10,12,16.70
2010,07,23,10,13,16.80
2010,07,23,10,14,16.80
2010,07,23,10,15,16.80
2010,07,23,10,16,16.80
2010,07,23,10,17,16.90
2010,07,23,10,18,16.90
2010,07,23,10,19,16.90
2010,07,23,10,20,17.00
2010,07,23,10,21,17.10
2010,07,23,10,22,17.10
2010,07,23,10,23,17.10
2010,07,23,10,24,17.20
2010,07,23,10,25,17.20
2010,07,23,10,26,17.20
2010,07,23,10,27,17.20
2010,07,23,10,28,17.20
2010,07,23,10,29,17.20
2010,07,23,10,30,17.20
2010,07,23,10,31,17.20
2010,07,23,10,32,17.20
2010,07,23,10,33,17.30
2010,07,23,10,34,17.30
2010,07,23,10,35,17.40
2010,07,23,10,36,17.50
2010,07,23,10,37,17.60
2010,07,23,10,38,17.70
2010,07,23,10,39,17.80
2010,07,23,10,40,17.80
2010,07,23,10,41,17.90
2010,07,23,10,42,18.00
2010,07,23,10,43,18.10
2010,07,23,10,44,18.20
2010,07,23,10,45,18.30
2010,07,23,10,46,18.40
2010,07,23,10,47,18.50
2010,07,23,10,48,18.60
2010,07,23,10,49,18.60
2010,07,23,10,50,18.70
2010,07,23,10,51,18.80
2010,07,23,10,52,18.90
2010,07,23,10,53,18.90
2010,07,23,10,54,19.00
2010,07,23,10,55,19.10
2010,07,23,10,56,19.10
2010,07,23,10,57,19.20
2010,07,23,10,58,19.20
2010,07,23,10,59,19.30
2010,07,23,11,00,19.30
2010,07,23,11,01,19.40
2010,07,23,11,02,19.40
2010,07,23,11,03,19.50
2010,07,23,11,04,19.50
2010,07,23,11,05,19.60
2010,07,23,11,06,19.70
2010,07,23,11,07,19.80
2010,07,23,11,08,19.80
2010,07,23,11,09,19.90
2010,07,23,11,10,20.00
2010,07,23,11,11,20.00
2010,07,23,11,12,20.10
2010,07,23,11,13,20.10
2010,07,23,11,14,20.20
2010,07,23,11,15,20.20
2010,07,23,11,16,20.30
2010,07,23,11,17,20.30
2010,07,23,11,18,20.40
2010,07,23,11,19,20.40
2010,07,23,11,20,20.40
2010,07,23,11,21,20.40
2010,07,23,11,22,20.50
2010,07,23,11,23,20.50
2010,07,23,11,24,20.60
2010,07,23,11,25,20.60
2010,07,23,11,26,20.60
2010,07,23,11,27,20.60
2010,07,23,11,28,20.60
2010,07,23,11,29,20.60
2010,07,23,11,30,20.70
2010,07,23,11,31,20.70
2010,07,23,11,32,20.80
2010,07,23,11,33,20.80
2010,07,23,11,34,20.90
2010,07,23,11,35,20.90
2010,07,23,11,36,20.90
2010,07,23,11,37,20.90
2010,07,23,11,38,20.90
2010,07,23,11,39,20.90
2010,07,23,11,40,20.90
2010,07,23,11,41,21.00
2010,07,23,11,42,21.00
2010,07,23,11,43,21.10
2010,07,23,11,44,21.10
2010,07,23,11,45,21.10
2010,07,23,11,46,21.20
2010,07,23,11,47,21.30
2010,07,23,11,48,21.40
2010,07,23,11,49,21.50
2010,07,23,11,50,21.60
2010,07,23,11,51,21.60
2010,07,23,11,52,21.70
2010,07,23,11,53,21.80
2010,07,23,11,54,21.80
2010,07,23,11,55,21.80
2010,07,23,11,56,21.80
2010,07,23,11,57,21.90
2010,07,23,11,58,22.00
2010,07,23,11,59,22.00
2010,07,23,12,00,22.10
2010,07,23,12,01,22.10
2010,07,23,12,02,22.20
2010,07,23,12,03,22.20
2010,07,23,12,04,22.20
2010,07,23,12,05,22.30
2010,07,23,12,06,22.30
2010,07,23,12,07,22.30
2010,07,23,12,08,22.30
2010,07,23,12,09,22.40
2010,07,23,12,10,22.40
2010,07,23,12,11,22.50
2010,07,23,12,12,22.60
2010,07,23,12,13,22.60
2010,07,23,12,14,22.70
2010,07,23,12,15,22.70
2010,07,23,12,16,22.80
2010,07,23,12,17,22.80
2010,07,23,12,18,22.80
2010,07,23,12,19,22.80
2010,07,23,12,20,22.80
2010,07,23,12,21,22.70
2010,07,23,12,22,22.70
2010,07,23,12,23,22.70
2010,07,23,12,24,22.70
2010,07,23,12,25,22.70
2010,07,23,12,26,22.70
2010,07,23,12,27,22.70
2010,07,23,12,28,22.80
2010,07,23,12,29,22.80
2010,07,23,12,30,22.80
2010,07,23,12,31,22.90
2010,07,23,12,32,23.00
2010,07,23,12,33,23.00
2010,07,23,12,34,23.10
2010,07,23,12,35,23.20
2010,07,23,12,36,23.30
2010,07,23,12,37,23.40
2010,07,23,12,38,23.50
2010,07,23,12,39,23.60
2010,07,23,12,40,23.70
2010,07,23,12,41,23.70
2010,07,23,12,42,23.80
2010,07,23,12,43,23.80
2010,07,23,12,44,23.80
2010,07,23,12,45,23.80
2010,07,23,12,46,23.70
2010,07,23,12,47,23.70
2010,07,23,12,48,23.70
2010,07,23,12,49,23.60
2010,07,23,12,50,23.40
2010,07,23,12,51,23.30
2010,07,23,12,52,23.30
2010,07,23,12,53,23.30
2010,07,23,12,54,23.30
2010,07,23,12,55,23.20
2010,07,23,12,56,23.20
2010,07,23,12,57,23.20
2010,07,23,12,58,23.30
2010,07,23,12,59,23.30
2010,07,23,13,00,23.40
2010,07,23,13,01,23.40
2010,07,23,13,02,23.40
2010,07,23,13,03,23.40
2010,07,23,13,04,23.40
2010,07,23,13,05,23.40
2010,07,23,13,06,23.40
2010,07,23,13,07,23.40
2010,07,23,13,08,23.40
2010,07,23,13,09,23.40
2010,07,23,13,10,23.40
2010,07,23,13,11,23.40
2010,07,23,13,12,23.50
2010,07,23,13,13,23.50
2010,07,23,13,14,23.50
2010,07,23,13,15,23.60
2010,07,23,13,16,23.60
2010,07,23,13,17,23.60
2010,07,23,13,18,23.60
2010,07,23,13,19,23.70
2010,07,23,13,20,23.70
2010,07,23,13,21,23.70
2010,07,23,13,22,23.70
2010,07,23,13,23,23.70
2010,07,23,13,24,23.70
2010,07,23,13,25,23.70
2010,07,23,13,26,23.70
2010,07,23,13,27,23.70
2010,07,23,13,28,23.80
2010,07,23,13,29,23.80
2010,07,23,13,30,23.80
2010,07,23,13,31,23.90
2010,07,23,13,32,24.00
2010,07,23,13,33,24.00
2010,07,23,13,34,24.10
2010,07,23,13,35,24.10
2010,07,23,13,36,24.10
2010,07,23,13,37,24.10
2010,07,23,13,38,24.20
2010,07,23,13,39,24.30
2010,07,23,13,40,24.30
2010,07,23,13,41,24.30
2010,07,23,13,42,24.30
2010,07,23,13,43,24.30
2010,07,23,13,44,24.30
2010,07,23,13,45,24.30
2010,07,23,13,46,24.40
2010,07,23,13,47,24.40
2010,07,23,13,48,24.40
2010,07,23,13,49,24.50
2010,07,23,13,50,24.50
2010,07,23,13,51,24.60
2010,07,23,13,52,24.70
2010,07,23,13,53,24.80
2010,07,23,13,54,24.90
2010,07,23,13,55,25.00
2010,07,23,13,56,25.10
2010,07,23,13,57,25.20
2010,07,23,13,58,25.20
2010,07,23,13,59,25.20
2010,07,23,14,00,25.20
2010,07,23,14,01,25.20
2010,07,23,14,02,25.30
2010,07,23,14,03,25.30
2010,07,23,14,04,25.40
2010,07,23,14,05,25.40
2010,07,23,14,06,25.50
2010,07,23,14,07,25.60
2010,07,23,14,08,25.60
2010,07,23,14,09,25.50
2010,07,23,14,10,25.30
2010,07,23,14,11,25.30
2010,07,23,14,12,25.30
2010,07,23,14,13,25.30
2010,07,23,14,14,25.40
2010,07,23,14,15,25.50
2010,07,23,14,16,25.50
2010,07,23,14,17,25.60
2010,07,23,14,18,25.60
2010,07,23,14,19,25.60
2010,07,23,14,20,25.70
2010,07,23,14,21,25.80
2010,07,23,14,22,25.80
2010,07,23,14,23,25.80
2010,07,23,14,24,25.90
2010,07,23,14,25,25.90
2010,07,23,14,26,25.90
2010,07,23,14,27,26.00
2010,07,23,14,28,26.00
2010,07,23,14,29,26.10
2010,07,23,14,30,26.20
2010,07,23,14,31,26.20
2010,07,23,14,32,26.30
2010,07,23,14,33,26.30
2010,07,23,14,34,26.30
2010,07,23,14,35,26.30
2010,07,23,14,36,26.30
2010,07,23,14,37,26.20
2010,07,23,14,38,26.10
2010,07,23,14,39,26.00
2010,07,23,14,40,26.00
2010,07,23,14,41,26.10
2010,07,23,14,42,26.10
2010,07,23,14,43,26.20
2010,07,23,14,44,26.10
2010,07,23,14,45,26.00
2010,07,23,14,46,26.00
2010,07,23,14,47,26.00
2010,07,23,14,48,25.90
2010,07,23,14,49,25.90
2010,07,23,14,50,25.90
2010,07,23,14,51,25.80
2010,07,23,14,52,25.60
2010,07,23,14,53,25.60
2010,07,23,14,54,25.50
2010,07,23,14,55,25.50
2010,07,23,14,56,25.60
2010,07,23,14,57,25.70
2010,07,23,14,58,25.80
2010,07,23,14,59,25.90
2010,07,23,15,00,25.90
2010,07,23,15,01,26.00
2010,07,23,15,02,26.10
2010,07,23,15,03,26.20
2010,07,23,15,04,26.20
2010,07,23,15,05,26.30
2010,07,23,15,06,26.30
2010,07,23,15,07,26.30
2010,07,23,15,08,26.30
2010,07,23,15,09,26.30
2010,07,23,15,10,26.40
2010,07,23,15,11,26.40
2010,07,23,15,12,26.40
2010,07,23,15,13,26.50
2010,07,23,15,14,26.50
2010,07,23,15,15,26.60
2010,07,23,15,16,26.60
2010,07,23,15,17,26.60
2010,07,23,15,18,26.60
2010,07,23,15,19,26.60
2010,07,23,15,20,26.50
2010,07,23,15,21,26.40
2010,07,23,15,22,26.30
2010,07,23,15,23,26.20
2010,07,23,15,24,26.10
2010,07,23,15,25,26.10
2010,07,23,15,26,26.10
2010,07,23,15,27,26.10
2010,07,23,15,28,26.20
2010,07,23,15,29,26.30
2010,07,23,15,30,26.40
2010,07,23,15,31,26.40
2010,07,23,15,32,26.50
2010,07,23,15,33,26.50
2010,07,23,15,34,26.50
2010,07,23,15,35,26.60
2010,07,23,15,36,26.60
2010,07,23,15,37,26.60
2010,07,23,15,38,26.70
2010,07,23,15,39,26.80
2010,07,23,15,40,26.70
2010,07,23,15,41,26.60
2010,07,23,15,42,26.60
2010,07,23,15,43,26.60
2010,07,23,15,44,26.60
2010,07,23,15,45,26.70
2010,07,23,15,46,26.80
2010,07,23,15,47,26.80
2010,07,23,15,48,26.80
2010,07,23,15,49,26.80
2010,07,23,15,50,26.80
2010,07,23,15,51,26.80
2010,07,23,15,52,26.80
2010,07,23,15,53,26.80
2010,07,23,15,54,26.90
2010,07,23,15,55,26.90
2010,07,23,15,56,27.00
2010,07,23,15,57,27.00
2010,07,23,15,58,27.10
2010,07,23,15,59,27.10
2010,07,23,16,00,27.10
2010,07,23,16,01,27.10
2010,07,23,16,02,27.10
2010,07,23,16,03,27.10
2010,07,23,16,04,27.10
2010,07,23,16,05,27.00
2010,07,23,16,06,26.90
2010,07,23,16,07,26.90
2010,07,23,16,08,26.80
2010,07,23,16,09,26.70
2010,07,23,16,10,26.60
2010,07,23,16,11,26.60
2010,07,23,16,12,26.50
2010,07,23,16,13,26.50
2010,07,23,16,14,26.50
2010,07,23,16,15,26.50
2010,07,23,16,16,26.50
2010,07,23,16,17,26.50
2010,07,23,16,18,26.50
2010,07,23,16,19,26.50
2010,07,23,16,20,26.50
2010,07,23,16,21,26.60
2010,07,23,16,22,26.60
2010,07,23,16,23,26.60
2010,07,23,16,24,26.50
2010,07,23,16,25,26.40
2010,07,23,16,26,26.50
2010,07,23,16,27,26.50
2010,07,23,16,28,26.60
2010,07,23,16,29,26.70
2010,07,23,16,30,26.80
2010,07,23,16,31,26.90
2010,07,23,16,32,27.00
2010,07,23,16,33,27.00
2010,07,23,16,34,27.10
2010,07,23,16,35,27.20
2010,07,23,16,36,27.30
2010,07,23,16,37,27.40
2010,07,23,16,38,27.50
2010,07,23,16,39,27.60
2010,07,23,16,40,27.70
2010,07,23,16,41,27.70
2010,07,23,16,42,27.80
2010,07,23,16,43,27.80
2010,07,23,16,44,27.90
2010,07,23,16,45,27.90
2010,07,23,16,46,27.90
2010,07,23,16,47,27.90
2010,07,23,16,48,27.90
2010,07,23,16,49,27.90
2010,07,23,16,50,27.80
2010,07,23,16,51,27.80
2010,07,23,16,52,27.80
2010,07,23,16,53,27.80
2010,07,23,16,54,27.80
2010,07,23,16,55,27.80
2010,07,23,16,56,27.80
2010,07,23,16,57,27.80
2010,07,23,16,58,27.80
2010,07,23,16,59,27.80
2010,07,23,17,00,27.70
2010,07,23,17,01,27.70
2010,07,23,17,02,27.70
2010,07,23,17,03,27.70
2010,07,23,17,04,27.80
2010,07,23,17,05,27.80
2010,07,23,17,06,27.90
2010,07,23,17,07,27.90
2010,07,23,17,08,28.00
2010,07,23,17,09,28.10
2010,07,23,17,10,28.10
2010,07,23,17,11,28.20
2010,07,23,17,12,28.20
2010,07,23,17,13,28.20
2010,07,23,17,14,28.20
2010,07,23,17,15,28.20
2010,07,23,17,16,28.20
2010,07,23,17,17,28.10
2010,07,23,17,18,28.10
2010,07,23,17,19,28.10
2010,07,23,17,20,28.10
2010,07,23,17,21,28.00
2010,07,23,17,22,27.90
2010,07,23,17,23,27.80
2010,07,23,17,24,27.80
2010,07,23,17,25,27.70
2010,07,23,17,26,27.70
2010,07,23,17,27,27.70
2010,07,23,17,28,27.60
2010,07,23,17,29,27.60
2010,07,23,17,30,27.60
2010,07,23,17,31,27.60
2010,07,23,17,32,27.60
2010,07,23,17,33,27.50
2010,07,23,17,34,27.40
2010,07,23,17,35,27.40
2010,07,23,17,36,27.40
2010,07,23,17,37,27.40
2010,07,23,17,38,27.40
2010,07,23,17,39,27.40
2010,07,23,17,40,27.50
2010,07,23,17,41,27.50
2010,07,23,17,42,27.60
2010,07,23,17,43,27.60
2010,07,23,17,44,27.60
2010,07,23,17,45,27.60
2010,07,23,17,46,27.60
2010,07,23,17,47,27.60
2010,07,23,17,48,27.50
2010,07,23,17,49,27.50